Hourly Data Report for July 12, 2017

All times are specified in Local Standard Time (LST). Add 1 hour to adjust for Daylight Saving Time where and when it is observed.

LUTSELK'E CS
NORTHWEST TERRITORIES

62°24'56.030" N
110°41'25.070" W
178.90 m
220L002
71529
XLU

Download Data

Hourly Data (July 2017)
Hourly Data Report for July 12, 2017
Temp Definition
°C
Dew Point Temp Definition
°C
Rel Hum Definition
%
Wind Dir Definition
10's deg

Wind Spd Definition
km/h
Visibility Definition
km
Stn Press Definition
kPa
Hmdx Definition


Wind Chill Definition


Weather Definition


TIME
00:00 14.0 10.2 78 LegendMM LegendMM   99.13     LegendNANA
01:00 13.0 9.2 78 LegendMM LegendMM   99.13     LegendNANA
02:00 12.6 8.7 78 LegendMM LegendMM   99.13     LegendNANA
03:00 11.7 8.0 78 LegendMM LegendMM   99.14     LegendNANA
04:00 14.2 10.5 78 LegendMM LegendMM   99.16     LegendNANA
05:00 16.9 11.7 71 LegendMM LegendMM   99.14     LegendNANA
06:00 17.6 12.9 74 LegendMM LegendMM   99.15     LegendNANA
07:00 18.6 12.8 69 LegendMM LegendMM   99.15     LegendNANA
08:00 19.3 13.0 67 LegendMM LegendMM   99.14     LegendNANA
09:00 18.9 13.0 69 LegendMM LegendMM   99.15     LegendNANA
10:00 19.3 12.7 65 LegendMM LegendMM   99.14     LegendNANA
11:00 19.0 12.1 64 LegendMM LegendMM   99.15     LegendNANA
12:00 19.0 11.8 63 LegendMM LegendMM   99.14     LegendNANA
13:00 21.5 11.1 51 LegendMM LegendMM   99.12     LegendNANA
14:00 21.7 10.0 47 LegendMM LegendMM   99.10     LegendNANA
15:00 22.0 9.8 46 LegendMM LegendMM   99.10     LegendNANA
16:00 21.9 8.4 42 LegendMM LegendMM   99.08     LegendNANA
17:00 23.1 10.0 43 LegendMM LegendMM   99.01     LegendNANA
18:00 22.8 9.3 42 LegendMM LegendMM   98.99     LegendNANA
19:00 20.9 9.9 49 LegendMM LegendMM   98.96     LegendNANA
20:00 20.8 7.7 43 LegendMM LegendMM   98.93     LegendNANA
21:00 20.0 8.8 48 LegendMM LegendMM   98.93     LegendNANA
22:00 17.8 9.1 56 LegendMM LegendMM   98.97     LegendNANA
23:00 16.3 8.1 58 LegendMM LegendMM   98.98     LegendNANA

Notes on Data Quality.

Legend

  • E = Estimated
  • M = Missing
  • NA = Not Available
  • ‡ = Partner data that is not subject to review by the National Climate Archives
Date modified: